[ hide orbit diagram ]
For accurate long-term ephemerides, please instead use our Horizons system.This orbit viewer was implemented using two-body methods, and hence should not be used for determining accurate long-term trajectories (over several years or decades) or planetary encounter circumstances.
Orbital Elements at Epoch 2459000.5 (2020-May-31.0) TDB
Reference: JPL 36 (heliocentric ecliptic J2000)
Element | Value | Uncertainty (1-sigma) | Units |
e | .1489526166338066 | 4.4361e-08 | |
a | 3.168391765419864 | 1.7351e-08 | au |
q | 2.696451521439569 | 1.3684e-07 | au |
i | 1.658006643594943 | 3.9647e-06 | deg |
node | 66.6169092397035 | 0.00014863 | deg |
peri | 286.2799601802195 | 0.00014913 | deg |
M | 59.37413926243656 | 1.1826e-05 | deg |
tp | 2458660.756179103950 (2019-Jun-26.25617910) | 6.7824e-05 | TDB |
period | 2059.9502921966 5.64 | 1.6922e-05 4.633e-08 | d yr |
n | .1747614985486464 | 1.4356e-09 | deg/d |
Q | 3.640332009400158 | 1.9936e-08 | au |
|
| | Orbit Determination Parameters
Additional Information
|
[ show covariance matrix ]
Physical Parameter Table
Parameter |
Symbol |
Value |
Units |
Sigma |
Reference |
Notes |
absolute magnitude |
H |
13.2 |
|
n/a |
MPO502278 |
|
diameter |
diameter |
12.783 |
km |
0.305 |
urn:nasa:pds:neowise_diameters_albedos::2.0[mainbelt] (http://adsabs.harvard.edu/abs/2011ApJ...741...68M) |
|
geometric albedo |
albedo |
0.082 |
|
0.008 |
urn:nasa:pds:neowise_diameters_albedos::2.0[mainbelt] (http://adsabs.harvard.edu/abs/2011ApJ...741...68M) |
|
|
14346 Zhilyaev | Discovered 1985 Aug. 23 by N. S. Chernykh at the Crimean Astrophysical Observatory. |
Boris Efimovich Zhilyaev (b. 1940) is chief of the high-speed photometry group at the main astronomical observatory of the National Academy of Sciences of Ukraine. He has organized an international network of synchronized HSPh telescopes to detect microsecond stellar variations at a level down to 0.001 magnitude. |
NOTE: some special characters may not display properly (any characters within {} are an attempt to place the proper accent above a character) |
Reference: 20051215/MPCPages.arc | Last Updated: 2006-03-22 |
|
[ show close-approach data ]
|